This demonstration page uses our WeatherBlox Daily Observations layout. Learn more.

Left ArrowRight Arrow

Hourly Observations for October 7, 2021

Temp ( °F °C ) Dew Point ( °F °C ) Humidity (%) Winds ( mph kmh ) Pressure ( in mb ) Visibility ( mi km ) Precip ( " mm )
12:53 am 00:53 Partly Cloudy 58 14.4 45 7.2 62 62 NW 6 9 29.91 1013 10 16 N/A
1:53 am 01:53 Partly Cloudy 58 14.4 44 6.7 60 60 N 3 6 29.91 1013 10 16 N/A
2:53 am 02:53 Mostly Clear 56 13.3 45 7.2 67 67 NW 6 9 29.90 1013 10 16 N/A
3:53 am 03:53 Clear 54 12.2 46 7.8 75 75 N N/A 29.91 1013 10 16 N/A
4:53 am 04:53 Clear 53 11.7 45 7.2 74 74 N N/A 29.91 1013 10 16 N/A
5:53 am 05:53 Clear 52 11.1 44 6.7 75 75 NE 3 6 29.92 1013 10 16 N/A
6:53 am 06:53 Clear 52 11.1 44 6.7 75 75 N N/A 29.93 1014 10 16 N/A
7:53 am 07:53 Sunny 52 11.1 44 6.7 75 75 N N/A 29.94 1014 10 16 N/A
8:53 am 08:53 Sunny 55 12.8 44 6.7 67 67 N N/A 29.95 1014 10 16 N/A
9:53 am 09:53 Sunny 61 16.1 45 7.2 56 56 N N/A 29.95 1014 10 16 N/A
10:53 am 10:53 Sunny 67 19.4 45 7.2 45 45 N N/A 29.94 1014 10 16 N/A
11:53 am 11:53 Sunny 69 20.6 44 6.7 41 41 VRB 6 9 29.93 1013 10 16 N/A
12:53 pm 12:53 Sunny 71 21.7 42 5.6 35 35 N N/A 29.91 1013 10 16 N/A
1:53 pm 13:53 Sunny 73 22.8 37 2.8 27 27 SSW 7 11 29.90 1013 10 16 N/A
2:53 pm 14:53 Sunny 73 22.8 34 1.1 24 24 SSE 13 20 29.88 1012 10 16 N/A
3:53 pm 15:53 Sunny 71 21.7 33 0.6 25 25 SSE 9 15 29.88 1012 10 16 N/A
4:53 pm 16:53 Sunny 71 21.7 20 -6.7 14 14 S 13 20 29.87 1012 10 16 N/A
5:53 pm 17:53 Sunny 69 20.6 23 -5 17 17 S 12 19 29.88 1012 10 16 N/A
6:53 pm 18:53 Clear 66 18.9 27 -2.8 23 23 E 6 9 29.88 1012 10 16 N/A
7:53 pm 19:53 Clear 63 17.2 31 -0.6 30 30 ESE 5 7 29.89 1012 8 13 N/A
8:53 pm 20:53 Clear 60 15.6 33 0.6 36 36 N N/A 29.91 1013 7 11 N/A
9:53 pm 21:53 Clear 58 14.4 33 0.6 39 39 N N/A 29.91 1013 8 13 N/A
10:53 pm 22:53 Clear 56 13.3 32 undefined 40 40 NNE 5 7 29.92 1013 8 13 N/A
11:53 pm 23:53 Clear 56 13.3 33 0.6 42 42 NW 5 7 29.92 1013 10 16 N/A

Powered by AerisWeather